Location: Lawshall
(52.1500°N, 0.7333°E)
Time: 05:23:46
(UTC+00:00)

Daily predictions for brighter satellites

Satellite Brightness Start Highest point End
(mag) Time Altitude Azimuth Time Altitude Azimuth Time Altitude Azimuth
SL-16 R/B 4.3 03:19:10 22° ENE 03:19:10 22° ENE 03:22:05 10° E
Cosmos 2082 Rocket 4.2 03:23:08 23° E 03:23:08 23° E 03:26:34 10° NE
USA 234 4.2 03:24:22 10° ENE 03:28:36 43° NE 03:28:36 43° NE
NOSS 3-1 (C) 4.0 03:52:29 71° E 03:52:29 71° E 04:00:18 10° SE
COSMOS 2455 4.0 04:07:00 35° SSE 04:07:00 35° SSE 04:10:17 10° SE
Cosmos 2360 Rocket 3.6 04:09:26 29° NNE 04:10:22 31° NE 04:15:19 10° ESE
Cosmos 2333 Rocket 3.2 04:11:00 40° NNE 04:11:32 41° NE 04:16:58 10° ESE
ATLAS 3B R/B 3.9 04:14:24 34° NNW 04:15:44 36° N 04:22:51 10° ENE
ACS3 Solar Sail 3.9 04:11:52 10° N 04:12:40 14° N 04:12:40 14° N
NOSS 3-4 (A) 4.2 04:23:03 39° NNE 04:23:03 39° NNE 04:27:25 10° NE
NOSS 3-4 (C) 4.2 04:23:12 39° NNE 04:23:12 39° NNE 04:27:35 10° NE
Cosmos 2219 Rocket 3.8 04:25:50 23° N 04:27:46 28° NE 04:32:34 10° E
ADEOS Rocket 4.3 04:22:24 10° N 04:27:21 37° NNW 04:27:21 37° NNW
COSMO-SKYMED 1 4.0 04:29:00 10° SE 04:32:40 34° ENE 04:32:40 34° ENE
Cosmos 2322 Rocket 3.1 04:32:25 36° N 04:34:01 44° NE 04:39:27 10° ESE
Cosmos 1937 Rocket 3.9 04:49:25 51° S 04:49:25 51° S 04:53:15 10° SSE
Cosmos 858 Rocket 4.4 04:49:23 84° ENE 04:49:24 84° ENE 04:54:36 10° SSE
USA 59 Rocket 2.2 04:54:18 17° S 04:54:18 17° S 04:55:39 10° SSE
Cosmos 2237 4.4 04:53:25 54° SSW 04:53:25 54° SSW 04:58:05 10° SSE
Cosmos 1833 Rocket 4.1 04:55:09 24° N 04:55:09 24° N 04:58:05 10° NNE
Meteor 2-3 Rocket 4.3 04:49:16 10° S 04:54:51 59° E 05:00:26 10° NNE
Cosmos 2058 Rocket 4.0 04:54:40 28° NNE 04:56:38 48° ENE 05:00:54 10° SSE
NOSS 3-1 (A) 3.9 04:57:15 45° NW 04:59:52 87° NE 05:08:30 10° SE
COSMOS 2406 3.5 04:55:16 13° SSW 05:00:13 66° ESE 05:05:52 10° NE
SKYMED 2 3.8 04:56:39 10° SSE 05:00:14 61° SSE 05:00:14 61° SSE
SL-16 R/B 2.1 05:01:02 60° NW 05:02:09 85° WSW 05:07:49 10° SSE
Cosmos 2082 Rocket 2.0 05:05:02 63° WSW 05:05:43 71° WNW 05:11:22 10° NNE
CZ-4 R/B 4.2 05:02:00 10° NNE 05:06:38 59° ESE 05:11:11 10° S
ATLAS 5 CENTAUR R/B 3.4 05:10:38 14° NNE 05:10:38 14° NNE 05:11:32 10° NNE
SeaSat 1 3.6 05:04:35 10° NNE 05:07:30 29° N 05:07:30 29° N
BREEZE-M DEB (TANK) 4.4 05:12:01 32° SE 05:12:01 32° SE 05:13:42 10° E
Okean 1 3.9 05:11:24 42° NE 05:12:00 47° ENE 05:15:26 10° SSE
USA 234 3.5 05:07:17 10° ENE 05:13:43 59° N 05:15:57 40° WNW
CZ-2C R/B 4.0 05:11:13 10° N 05:13:16 22° N 05:13:16 22° N
Helios 1A Rocket 3.3 05:13:35 10° SSE 05:15:55 42° SSE 05:15:55 42° SSE
NOAA 12 4.2 05:11:40 10° NNE 05:16:59 76° ESE 05:22:15 10° S
Cosmos 2285 Rocket 4.3 05:17:03 17° NNW 05:22:03 67° ENE 05:28:25 10° SE
BREEZE-M DEB (TANK) 3.2 05:23:26 47° SSE 05:23:26 47° SSE 05:27:09 10° E
BREEZE-M DEB (TANK) 3.3 05:24:35 30° SSW 05:24:56 31° S 05:29:33 10° ESE
Cosmos 2278 3.6 05:24:16 41° NW 05:26:12 67° WSW 05:31:47 10° SSE
SL-4 R/B 1.9 05:28:33 53° SSE 05:28:33 53° SSE 05:31:16 10° ESE
FengYun 1-2 T 4.2 05:23:52 10° N 05:29:28 62° WNW 05:35:01 10° SSW
NOSS 8 (A) 4.3 05:33:11 64° ESE 05:33:11 64° ESE 05:35:54 10° SE
Cosmos 2221 4.1 05:30:28 10° N 05:34:15 33° ENE 05:38:00 10° SE
Cosmos 2026 Rocket 3.8 05:28:44 10° S 05:34:48 86° W 05:40:58 10° N
SL-16 R/B 4.4 05:38:29 10° NNW 05:41:04 13° NNE 05:43:40 10° NE
Cosmos 841 Rocket 3.6 05:40:31 24° SW 05:43:27 52° WNW 05:48:36 10° NNE
Cosmos 405 Rocket 3.8 05:40:34 10° SSE 05:43:36 37° E 05:46:41 10° NNE
COSMOS 2455 4.2 05:50:11 19° WSW 05:50:11 19° WSW 05:53:33 10° SSW
Cosmos 2360 Rocket 2.1 05:51:12 23° NW 05:54:48 68° WSW 06:00:22 10° SSE
Cosmos 2333 Rocket 2.5 05:53:03 26° NW 05:55:58 48° WSW 06:01:27 10° S
Cosmos 1553 Rocket 4.0 05:50:22 10° N 05:56:46 86° W 06:03:12 10° S
Cosmos 1626 Rocket 3.9 05:52:32 10° S 05:56:55 68° E 06:01:18 10° NNE
SMAP 4.4 05:54:57 10° NNE 05:59:23 42° E 06:03:49 10° S
Cosmos 1892 Rocket 3.9 05:57:30 10° SW 06:01:39 41° WNW 06:05:52 10° N
Cosmos 1092 Rocket 3.9 05:55:30 10° SSW 06:01:44 65° WNW 06:07:57 10° N
Meteor 2-2 Rocket 4.4 05:56:58 10° NNW 06:02:29 52° W 06:08:03 10° S
Cosmos-2242 3.2 06:00:27 24° NW 06:02:34 44° W 06:06:33 10° SSW
Nadezhda 4 Rocket 4.5 05:58:59 10° SW 06:04:42 35° WNW 06:10:25 10° N
Cosmos 2237 Rocket 3.9 06:00:29 10° NNW 06:05:09 26° NE 06:09:49 10° E
Cosmos 1125 Rocket 3.8 06:01:41 11° NNW 06:06:47 70° ENE 06:12:00 10° SSE
ATLAS 3B R/B 3.4 06:01:38 16° NW 06:08:01 60° NE 06:15:33 10° ESE
COSMO-SKYMED 1 3.2 06:04:26 10° SSW 06:08:04 30° W 06:08:59 27° WNW
IRS-1D 3.9 06:07:34 10° N 06:12:10 38° WNW 06:16:49 10° SW
Cosmos 2219 Rocket 2.1 06:07:32 15° NNW 06:12:19 79° WSW 06:17:56 10° SSE
NOSS 3-4 (A) 4.5 06:10:28 19° NW 06:13:36 30° N 06:19:23 10° ENE
NOSS 3-4 (C) 4.5 06:10:38 19° NW 06:13:46 30° N 06:19:32 10° ENE
Cosmos 2322 Rocket 2.6 06:14:14 18° NW 06:18:05 43° WSW 06:23:24 10° S
BREEZE-M DEB (TANK) 4.4 05:59:30 10° W 06:19:52 75° S 06:24:35 10° E
Meteor 2-6 Rocket 4.4 06:18:44 10° NNW 06:24:37 61° W 06:30:26 10° S
Cosmos 1812 Rocket 3.4 06:22:12 10° NNW 06:26:32 81° W 06:30:51 10° S
IGS 5A 3.3 06:22:58 10° N 06:26:57 61° WNW 06:30:53 10° SSW
Cosmos 2322 4.1 06:21:45 10° NNW 06:27:24 65° NE 06:33:02 10° SE
Cosmos 1484 Rocket 2.7 06:24:54 10° N 06:28:12 44° WNW 06:31:25 10° SW
SJ-12 4.5 06:27:58 10° NNE 06:31:44 56° ESE 06:35:29 10° S
Cosmos 1437 Rocket 2.3 06:29:14 10° NNW 06:32:42 85° W 06:36:10 10° S
Cosmos 192 4.3 06:28:02 10° NNW 06:32:52 66° WSW 06:37:43 10° SSE
Cosmos 2266 Rocket 4.3 06:26:48 10° S 06:33:10 77° E 06:39:29 10° NNE
Cosmos 2058 Rocket 4.2 06:31:52 15° NW 06:34:11 22° W 06:37:36 10° SW
Cosmos 1417 Rocket 4.4 06:28:32 10° NNW 06:34:41 80° W 06:40:50 10° S
Cosmos 1602 Rocket 3.6 06:30:57 10° S 06:35:24 88° E 06:39:53 10° N
ATLAS 2AS CENTAUR R/B 3.6 06:29:18 10° SSW 06:36:08 55° SE 06:42:48 10° NE
SL-08 ROCKET BODY 4.3 06:34:04 10° SSW 06:39:51 65° WNW 06:45:42 10° N
ARIANE 5 R/B 3.0 06:35:13 10° NNE 06:40:26 68° ESE 06:45:38 10° S
Cosmos 1743 2.2 06:37:41 10° SSW 06:40:53 60° WNW 06:44:07 10° N
COSMOS 2406 3.9 06:39:54 10° WSW 06:44:56 32° NW 06:50:00 10° NNE
SeaSat 1 4.3 06:43:08 10° N 06:45:22 13° NNW 06:47:07 11° NW
SL-16 R/B 3.7 06:42:55 13° WNW 06:45:23 17° W 06:48:53 10° SW
COSMOS 2428 2.9 06:44:00 10° NNW 06:49:44 80° ENE 06:55:27 10° SE
Cosmos 2082 Rocket 3.4 06:46:55 11° W 06:50:48 21° NNW 06:55:03 10° NNE
ATLAS 5 CENTAUR R/B 3.2 06:50:08 10° NW 06:52:17 15° N 06:54:39 10° NE
Cosmos 2150 Rocket 4.4 06:50:29 10° NNW 06:55:58 70° ENE 07:01:22 10° SSE
USA 234 3.4 06:49:53 10° ESE 06:56:26 75° NNE 07:03:00 10° WNW
MOS 1 Rocket 3.7 06:52:53 10° NNE 06:58:18 90° E 07:03:37 10° SSW
Cosmos 1814 Rocket 4.3 06:53:48 10° SW 06:58:52 47° WNW 07:04:01 10° NNE
CBERS-1 4.3 06:55:04 10° N 06:59:56 46° WNW 07:04:45 10° SW
Meteor 1-27 Rocket 3.8 06:57:53 10° NNW 07:03:49 82° WSW 07:09:32 10° S
SAR-Lupe-4 3.5 07:00:45 10° N 07:04:18 63° WNW 07:07:48 10° SSW
SL-4 R/B 3.3 07:02:53 10° W 07:05:15 19° SW 07:07:34 10° SSE
CZ-2D R/B 3.0 07:03:25 10° N 07:06:30 47° WNW 07:09:34 10° SW
Cosmos 1570 Rocket 4.4 07:03:23 10° SSW 07:08:40 72° ESE 07:14:00 10° NNE
Cosmos 2151 3.2 07:04:57 10° SSW 07:08:53 45° WNW 07:12:52 10° N
Cosmos 1825 Rocket 3.6 07:04:36 10° SSW 07:09:03 84° WNW 07:13:29 10° N
Cosmos 2221 3.3 07:07:39 10° NNW 07:11:14 28° W 07:14:47 10° SSW
Cosmos 1758 Rocket 4.4 07:07:55 10° SW 07:11:48 30° WNW 07:15:43 10° N
CORIOLIS 4.3 07:07:52 10° N 07:13:06 54° WNW 07:18:21 10° SW
SAR-Lupe-1 4.1 07:10:22 10° N 07:13:56 58° WNW 07:17:28 10° SSW
USA 229 4.1 07:08:15 10° NW 07:15:34 77° SW 07:23:40 10° SE
USA 229 DEB 4.1 07:08:20 10° NW 07:15:39 77° SW 07:23:45 10° SE
